Find Starlink 32734

NORAD ID: 62476 Int'l Des: 2024-254 Owner: SPXS Country: US Constellation: starlink operational
LEOCIRCULAR

現在のビュー

3D地球を読み込み中...

About Starlink 32734

Starlink 32734 (NORAD 62476) is a starlink constellation satellite (v2 mini) launched Dec 31, 2024 by SPXS of US. It operates in LEO, CIRCULAR orbit with a mass of 730.00 kg.

Starlink 32734について

説明を読み込み中...

次回通過

Passes for default location (London). Set your location on the main map for personalized predictions.

高度履歴

Loading altitude history...

軌道要素

1 62476U 24254Q 26167.30782838 .00011173 00000-0 41483-3 0 9999
2 62476 43.0007 179.5733 0002608 277.9763 82.0793 15.27586319 82739
Epoch: Jun 16, 2026 • Age: 14 hours

現在のステータス

高度 494.6 km
速度 7.62 km/s
衛星直下点 -43.05°S, 140.43°W
打ち上げ日 Dec 31, 2024
運用期間 1.4 years
タイプ internet

技術仕様

分類 Payload
質量 730.00 kg
乾燥質量 700.00 kg
総質量 730.00 kg
長さ 0.30 m
直径 4.10 m
スパン 29.00 m
形状 Box + pan
製造者 SPXS
バスタイプ Starlink V2M
フェーズステータス In Orbit
所有者/国 SPXS/US

Most Searched